Disclaimer

Please do not use the information listed here in-flight or in-navigation, as they are not provided to us by the airports but are provided by volunteers, so they might be outdated.

Search


Regions


Airport information page

No radio frequency information is available.

Airport informations:
Latitude: 38° 31' 11.62" N
Longitude: 028° 42' 57.14" W
Elevation: 118 feet - 36 meters
Operating hours: Remarks
Operating agency: Civil government, landing fees and diplomatic clearance may be required
Timezone: UTC-1(0 DT) - Last Sunday in March to last Sunday in October
Fuel: Jet A1, without icing nhibitor.

Runway information:
10/28 - 5233 x 148 feet< - >1595 x 45 meters

Recent METARs:
LPHR 212030Z 10007KT 020V130 9999 SCT012 SCT030 16/10 Q1035
LPHR 212100Z 10008KT 070V140 9999 FEW012 SCT030 15/10 Q1035
LPHR 212100Z 10008KT 070V140 9999 FEW012 SCT030 15/10 Q1035

Airport on the map: